Hourly Data Report for October 05, 2016

All times are specified in Local Standard Time (LST). Add 1 hour to adjust for Daylight Saving Time where and when it is observed.

FREDERICTON
NEW BRUNSWICK

45°52'08.000" N
66°32'14.000" W
20.70 m
8101505
71700
YFC

Download Data

Hourly Data (October 2016)
Hourly Data Report for October 5, 2016
Temp Definition
°C
Dew Point Temp Definition
°C
Rel Hum Definition
%
Wind Dir Definition
10's deg

Wind Spd Definition
km/h
Visibility Definition
km
Stn Press Definition
kPa
Hmdx Definition


Wind Chill Definition


Weather Definition


TIME
00:00 Legend Double Dagger 2.6 2.0 96 19 5 16.1 102.65     LegendNANA
01:00 Legend Double Dagger 2.1 1.7 97 21 8 16.1 102.66     LegendNANA
02:00 Legend Double Dagger 1.2 0.9 98 20 9 16.1 102.66     LegendNANA
03:00 Legend Double Dagger 1.7 1.3 97 23 8 16.1 102.61     LegendNANA
04:00 Legend Double Dagger 0.9 0.7 98 24 5 16.1 102.53     LegendNANA
05:00 Legend Double Dagger -0.2 -0.5 98 20 11 16.1 102.54   -4 LegendNANA
06:00 Legend Double Dagger -0.5 -0.8 98 21 11 16.1 102.57   -4 LegendNANA
07:00 Legend Double Dagger 0.1 -0.2 98 20 9 16.1 102.62     LegendNANA
08:00 Legend Double Dagger 3.4 2.5 94 21 5 16.1 102.63     LegendNANA
09:00 Legend Double Dagger 7.0 4.8 86 LegendMM 4 16.1 102.64     LegendNANA
10:00 Legend Double Dagger 11.1 7.0 76 21 8 16.1 102.60     LegendNANA
11:00 Legend Double Dagger 15.0 9.4 69 1 5 16.1 102.51     LegendNANA
12:00 Legend Double Dagger 18.8 9.7 55 20 9 16.1 102.43     LegendNANA
13:00 Legend Double Dagger 20.0 7.8 45 23 13 16.1 102.35     LegendNANA
14:00 Legend Double Dagger 20.7 7.3 42 29 17 16.1 102.30     LegendNANA
15:00 Legend Double Dagger 21.0 9.8 48 24 9 16.1 102.21     LegendNANA
16:00 Legend Double Dagger 20.8 10.0 49 28 5 16.1 102.15     LegendNANA
17:00 Legend Double Dagger 19.7 10.4 55 26 8 16.1 102.13     LegendNANA
18:00 Legend Double Dagger 15.4 11.5 77 24 8 16.1 102.14     LegendNANA
19:00 Legend Double Dagger 12.7 10.5 86 25 8 16.1 102.15     LegendNANA
20:00 Legend Double Dagger 11.0 9.5 91 24 8 16.1 102.17     LegendNANA
21:00 Legend Double Dagger 9.8 9.0 95 19 8 16.1 102.22     LegendNANA
22:00 Legend Double Dagger 8.5 8.1 97 19 5 16.1 102.20     LegendNANA
23:00 Legend Double Dagger 8.3 8.0 98 19 5 16.1 102.19     LegendNANA

Notes on Data Quality.

Legend

  • E = Estimated
  • M = Missing
  • NA = Not Available
  • ‡ = Partner data that is not subject to review by the National Climate Archives
Date modified: